Location: Eastview
(35.0756°N, 88.5453°W)
Time: 06:34:23
(UTC+00:00)

Okean O Rocket - Pass Details

Date: 22 November 2019
Orbit: 622 x 646 km, 98.2° (Epoch: 05 December)

Event Time Altitude Azimuth Distance (km) Brightness Sun altitude
Rises 23:16:47 0° 189° (S) 2,915 5.4 -6.9°
Reaches altitude 10° 23:19:11 10° 199° (SSW) 2,008 4.8 -7.3°
Maximum altitude 23:23:04 31° 262° (W) 1,103 3.8 -8.1°
Drops below altitude 10° 23:26:57 10° 325° (NW) 2,008 4.4 -8.8°
Sets 23:29:21 0° 336° (NNW) 2,915 5.1 -9.3°
